GW0019 Weather Reports


time (UTC)temp
C
wind
direction
speed
KPH
gust
KPH
rain 1hr
cm
rain 24hr
cm
rain mn
cm
humidity
%
barometer
mb
20260506050954 7 25 8.0 8.0 0.05 0.00 0.00 71 1016.2
20260506050452 7 25 8.0 8.0 0.00 0.00 0.00 71 1015.8
20260506044942 6 16 9.7 9.7 0.05 0.71 0.71 71 1016.5
20260506044441 6 16 9.7 9.7 0.00 0.71 0.71 71 1016.4
20260506043937 6 16 9.7 16.1 0.18 0.71 0.71 71 1016.5
20260506043434 6 11 8.0 14.5 0.36 0.71 0.71 71 1016.3
20260506042932 6 51 8.0 14.5 0.18 0.69 0.69 71 1016.0
20260506042431 6 51 8.0 14.5 0.00 0.66 0.66 71 1015.7
20260506041929 7 22 11.3 16.1 0.00 0.66 0.66 71 1015.4
20260506041426 7 22 11.3 16.1 0.00 0.66 0.66 71 1015.5
20260506040923 7 22 11.3 16.1 0.00 0.66 0.66 71 1015.6
20260506040421 7 8 3.2 6.4 0.00 0.66 0.66 71 1016.4
20260506035917 7 8 3.2 6.4 0.00 0.66 0.66 71 1015.5
20260506035415 7 17 11.3 11.3 0.00 0.66 0.66 71 1015.1
20260506034911 7 17 11.3 11.3 0.00 0.66 0.66 71 1015.2
20260506034408 7 17 11.3 11.3 0.00 0.66 0.66 71 1015.4
20260506033905 7 17 11.3 11.3 0.00 0.66 0.66 71 1015.8
20260506033402 7 37 6.4 12.9 0.00 0.66 0.66 71 1014.8
20260506032859 7 124 6.4 6.4 0.48 0.66 0.66 71 1015.0
20260506032356 7 345 0.0 6.4 0.97 0.66 0.66 71 1015.2
20260506031853 7 77 3.2 8.0 0.66 0.56 0.56 71 1014.8
20260506031350 -17 0.0 0.0 0.23 0.48 0.48 1014.7
20260506030848 -17 0.0 0.0 0.05 0.46 0.46 1014.6
20260506030346 -17 0.0 0.0 0.00 0.46 0.46 1014.6
20260506025842 -17 0.0 0.0 0.00 0.46 0.46 1014.3
20260506025338 7 25 14.5 16.1 0.00 0.46 0.46 71 1014.3
20260506024836 7 25 14.5 16.1 0.00 0.46 0.46 71 1014.3
20260506024333 7 25 14.5 16.1 0.00 0.46 0.46 71 1014.5
20260506023829 7 25 14.5 16.1 0.00 0.46 0.46 71 1014.6
20260506023325 7 25 14.5 16.1 0.00 0.46 0.46 71 1014.6
20260506022822 7 25 14.5 16.1 0.05 0.46 0.46 71 1014.3
20260506022320 7 25 14.5 16.1 0.13 0.46 0.46 71 1014.5
20260506021818 7 25 14.5 16.1 0.13 0.43 0.43 71 1014.7
20260506021315 7 25 14.5 16.1 0.00 0.43 0.43 71 1014.0
20260506020811 7 25 14.5 16.1 0.00 0.43 0.43 71 1014.4
20260506020309 7 25 14.5 16.1 0.00 0.43 0.43 71 1014.3
20260506015807 7 25 14.5 16.1 0.00 0.43 0.43 71 1014.4
20260506015306 7 20 11.3 20.9 0.00 0.43 0.43 71 1014.0
20260506014801 7 20 11.3 20.9 0.00 0.43 0.43 71 1013.9
20260506014257 -17 0.0 0.0 0.00 0.43 0.43 1014.1
20260506013754 -17 0.0 0.0 0.05 0.43 0.43 1013.6
20260506013251 -17 0.0 0.0 0.23 0.43 0.43 1013.5
20260506012748 -17 0.0 0.0 0.43 0.41 0.41 1013.5
20260506012245 -17 0.0 0.0 0.23 0.38 0.38 1013.7
20260506011742 -17 0.0 0.0 0.00 0.33 0.33 1013.4
20260506011238 -17 0.0 0.0 0.00 0.33 0.33 1013.1
20260506010737 -17 0.0 0.0 0.00 0.33 0.33 1013.2
20260506010234 -17 0.0 0.0 0.00 0.33 0.33 1013.6
20260506005731 -17 0.0 0.0 0.00 0.33 0.33 1013.4
20260506005228 -17 0.0 0.0 0.00 0.33 0.33 1013.1
20260506004723 -17 0.0 0.0 0.00 0.33 0.33 1012.8
20260506004221 -17 0.0 0.0 0.05 0.33 0.33 1013.1
20260506003717 -17 0.0 0.0 0.05 0.33 0.33 1013.0
20260506003214 -17 0.0 0.0 0.00 0.33 0.33 1013.1
20260506002709 -17 0.0 0.0 0.00 0.33 0.33 1013.1
20260506002206 -17 0.0 0.0 0.00 0.33 0.33 1012.8
20260506001702 -17 0.0 0.0 0.00 0.33 0.33 1012.5
20260506001159 10 34 6.4 12.9 0.00 0.33 0.33 72 1012.2
20260506000656 10 34 6.4 12.9 0.00 0.33 0.33 72 1012.4
20260506000154 10 34 6.4 12.9 0.00 0.33 0.33 72 1012.4
20260505235652 10 34 6.4 12.9 0.00 0.33 0.33 72 1012.5
20260505235149 10 34 6.4 12.9 0.00 0.33 0.33 72 1012.1
20260505234645 10 34 6.4 12.9 0.00 0.33 0.33 72 1012.0
20260505234142 10 34 6.4 12.9 0.00 0.33 0.33 72 1012.1
20260505233639 10 34 6.4 12.9 0.00 0.33 0.33 72 1011.8
20260505233137 10 34 6.4 12.9 0.00 0.33 0.33 72 1012.6
20260505232634 10 34 6.4 12.9 0.00 0.33 0.33 72 1012.2
20260505232132 10 34 6.4 12.9 0.00 0.33 0.33 72 1012.2
20260505231628 10 34 6.4 12.9 0.00 0.33 0.33 72 1012.1
20260505231127 -17 0.0 0.0 0.00 0.33 0.33 1012.2
20260505230625 -17 0.0 0.0 0.00 0.33 0.33 1012.1
20260505230121 -17 0.0 0.0 0.00 0.33 0.33 1012.0
20260505225617 -17 0.0 0.0 0.00 0.33 0.33 1012.0
20260505225114 -17 0.0 0.0 0.00 0.33 0.33 1012.1
20260505224610 11 47 19.3 19.3 0.00 0.33 0.33 72 1012.0
20260505224108 11 47 19.3 19.3 0.00 0.33 0.33 72 1011.9
20260505223605 11 47 19.3 19.3 0.00 0.33 0.33 72 1011.7
20260505223101 11 47 19.3 19.3 0.05 0.33 0.33 72 1011.7
20260505222558 11 47 19.3 19.3 0.05 0.33 0.33 72 1011.7
20260505222054 11 47 19.3 19.3 0.00 0.33 0.33 72 1011.7
20260505221551 11 47 19.3 19.3 0.00 0.33 0.33 72 1011.6
20260505221047 11 47 19.3 19.3 0.00 0.33 0.33 72 1011.6
20260505220545 11 47 19.3 19.3 0.00 0.33 0.33 72 1011.7
20260505220043 11 47 19.3 19.3 0.00 0.33 0.33 72 1011.3
20260505215540 11 47 19.3 19.3 0.00 0.33 0.33 72 1011.7
20260505215038 11 47 19.3 19.3 0.00 0.33 0.33 72 1011.9
20260505214536 11 17 8.0 11.3 0.00 0.33 0.33 72 1012.5
20260505214032 11 17 8.0 11.3 0.00 0.33 0.33 72 1012.0
20260505213530 11 54 12.9 17.7 0.00 0.33 0.33 72 1011.7
20260505213026 11 46 16.1 17.7 0.05 0.33 0.33 72 1011.4
20260505212523 11 56 6.4 9.7 0.05 0.33 0.33 72 1010.8
20260505212020 11 26 19.3 30.6 0.00 0.30 0.30 72 1010.9
20260505211517 11 26 19.3 30.6 0.00 0.30 0.30 72 1011.2
20260505211014 11 26 19.3 30.6 0.05 0.30 0.30 72 1011.2
20260505210510 12 33 9.7 20.9 0.05 0.30 0.30 72 1011.5
20260505210008 12 132 6.4 9.7 0.05 0.30 0.30 72 1011.5
20260505205506 12 132 6.4 9.7 0.05 0.30 0.30 72 1011.9
20260505205003 12 132 6.4 9.7 0.00 0.28 0.28 72 1011.4
20260505204500 12 132 6.4 9.7 0.00 0.28 0.28 72 1011.7
20260505203957 12 132 6.4 9.7 0.00 0.28 0.28 72 1011.9
20260505203453 12 132 6.4 9.7 0.00 0.28 0.28 72 1011.7
20260505202950 12 132 6.4 9.7 0.00 0.28 0.28 72 1012.0
20260505202447 12 132 6.4 9.7 0.05 0.28 0.28 72 1012.2
20260505201943 12 132 6.4 9.7 0.00 0.28 0.28 72 1011.9
20260505201440 12 132 6.4 9.7 0.00 0.28 0.28 72 1012.0
20260505200938 12 132 6.4 9.7 0.00 0.28 0.28 72 1011.5
20260505200435 13 42 16.1 16.1 0.00 0.28 0.28 72 1011.4
20260505195930 13 42 16.1 16.1 0.00 0.28 0.28 72 1011.7
20260505195428 13 5 12.9 20.9 0.00 0.28 0.28 72 1011.8
20260505194925 13 5 12.9 20.9 0.00 0.28 0.28 72 1012.0
20260505194423 13 5 12.9 20.9 0.00 0.28 0.28 72 1012.1
20260505193922 13 5 12.9 20.9 0.00 0.28 0.28 72 1012.0
20260505193420 13 5 12.9 20.9 0.00 0.28 0.28 72 1011.7
20260505192918 13 5 12.9 20.9 0.00 0.28 0.28 72 1011.6
20260505192416 13 5 12.9 20.9 0.05 0.28 0.28 72 1011.5
20260505191913 13 5 12.9 20.9 0.05 0.28 0.28 72 1011.5
20260505191412 13 5 12.9 20.9 0.00 0.28 0.28 72 1011.9
20260505190908 13 5 12.9 20.9 0.05 0.28 0.28 72 1011.8
20260505190404 13 5 12.9 20.9 0.05 0.28 0.28 72 1011.7
20260505185859 13 53 6.4 11.3 0.05 0.25 0.25 72 1011.8
20260505185356 13 53 6.4 11.3 0.18 0.25 0.25 72 1011.5
20260505184852 16 97 6.4 6.4 0.30 0.25 0.25 73 1011.6
20260505184349 16 97 6.4 6.4 0.23 0.23 0.23 73 1011.8
20260505183846 16 97 6.4 6.4 0.13 0.20 0.20 73 1011.7
20260505183343 16 97 6.4 6.4 0.00 0.18 0.18 73 1012.0
20260505182840 16 97 6.4 6.4 0.05 0.18 0.18 73 1011.7
20260505182336 16 97 6.4 8.0 0.05 0.18 0.18 73 1011.5
20260505181833 16 113 6.4 8.0 0.00 0.18 0.18 73 1011.8
20260505181331 16 114 4.8 4.8 0.05 0.18 0.18 73 1011.3
20260505180827 16 111 1.6 4.8 0.05 0.18 0.18 73 1011.4
20260505180324 16 97 4.8 6.4 0.00 0.15 0.15 73 1011.5
20260505175820 16 72 4.8 4.8 0.05 0.15 0.15 73 1011.5
20260505175317 16 114 3.2 3.2 0.05 0.15 0.15 73 1011.4
20260505174813 16 121 4.8 6.4 0.05 0.15 0.15 73 1011.4
20260505174311 16 110 3.2 8.0 0.05 0.15 0.15 73 1011.7
20260505173806 16 105 3.2 8.0 0.05 0.15 0.15 73 1011.4
20260505173303 16 129 6.4 8.0 0.00 0.13 0.13 73 1011.5
20260505172800 16 129 6.4 8.0 0.00 0.13 0.13 73 1011.6
20260505172257 16 131 3.2 6.4 0.00 0.13 0.13 73 1011.8
20260505171752 -17 0.0 0.0 0.00 0.13 0.13 1011.8
20260505171249 -17 0.0 0.0 0.00 0.13 0.13 1011.9
20260505170746 -17 0.0 0.0 0.00 0.13 0.13 1011.7
20260505170243 -17 0.0 0.0 0.00 0.13 0.13 1011.5
20260505165738 -17 0.0 0.0 0.00 0.13 0.13 1011.5
20260505165234 -17 0.0 0.0 0.00 0.13 0.13 1011.5
20260505164730 -17 0.0 0.0 0.00 0.13 0.13 1011.3
20260505164227 -17 0.0 0.0 0.00 0.13 0.13 1011.3
20260505163725 -17 0.0 0.0 0.00 0.13 0.13 1011.2
20260505163224 17 150 3.2 3.2 0.00 0.13 0.13 73 1011.5
20260505162721 17 150 3.2 3.2 0.00 0.13 0.13 73 1011.6
20260505162218 17 150 3.2 3.2 0.00 0.13 0.13 73 1011.5
20260505161714 17 150 3.2 3.2 0.00 0.13 0.13 73 1011.5
20260505161212 17 150 3.2 3.2 0.00 0.13 0.13 73 1011.4
20260505160709 17 150 3.2 3.2 0.00 0.13 0.13 73 1011.6
20260505160207 17 150 3.2 3.2 0.00 0.13 0.13 73 1011.7
20260505153146 -17 0.0 0.0 0.00 0.13 0.13 1011.6
20260505152643 -17 0.0 0.0 0.00 0.13 0.13 1011.8
20260505152138 -17 0.0 0.0 0.00 0.13 0.13 1011.7
20260505151634 -17 0.0 0.0 0.00 0.13 0.13 1011.7
20260505151132 -17 0.0 0.0 0.00 0.13 0.13 1011.8
20260505150627 -17 0.0 0.0 0.00 0.13 0.13 1011.8
20260505150125 -17 0.0 0.0 0.00 0.13 0.13 1011.7
20260505140553 15 0 1.6 3.2 0.00 0.13 0.13 73 1011.9
20260505125007 15 120 0.0 0.0 0.00 0.13 0.13 73 1011.7
20260505124503 15 120 0.0 0.0 0.00 0.13 0.13 73 1011.5
20260505124000 15 264 4.8 4.8 0.00 0.13 0.13 73 1011.6
20260505123456 15 283 1.6 3.2 0.00 0.13 0.13 73 1011.5
20260505122952 15 162 1.6 1.6 0.00 0.13 0.13 73 1011.1
20260505122450 15 196 4.8 4.8 0.00 0.13 0.13 72 1011.1
20260505121946 15 180 0.0 1.6 0.00 0.13 0.13 72 1010.8
20260505121443 15 60 1.6 6.4 0.05 0.13 0.13 73 1010.8
20260505120939 15 156 4.8 4.8 0.05 0.13 0.13 73 1010.7
20260505120436 15 203 0.0 4.8 0.00 0.13 0.13 73 1010.7
20260505115935 15 157 4.8 9.7 0.00 0.13 0.13 72 1011.1
20260505115432 15 184 9.7 12.9 0.00 0.13 0.13 73 1010.8
20260505114930 15 176 3.2 12.9 0.00 0.13 0.13 72 1010.6
20260505114425 15 199 9.7 11.3 0.00 0.13 0.13 72 1010.6
20260505113922 15 150 9.7 11.3 0.00 0.13 0.13 72 1010.7
20260505113419 14 199 6.4 14.5 0.00 0.13 0.13 73 1010.4
20260505112914 15 149 4.8 11.3 0.00 0.13 0.13 72 1010.3
20260505112413 15 170 9.7 16.1 0.00 0.13 0.13 72 1010.3
20260505111908 15 195 14.5 14.5 0.00 0.13 0.13 72 1010.3
20260505111403 15 135 9.7 12.9 0.00 0.13 0.13 73 1010.3
20260505110859 15 132 11.3 11.3 0.00 0.13 0.13 73 1010.7
20260505110351 15 217 4.8 6.4 0.05 0.13 0.13 73 1011.0
20260505101821 15 198 6.4 6.4 0.13 0.03 0.03 73 1011.5
20260505101316 15 198 6.4 6.4 0.00 0.00 0.00 73 1011.5
20260505100812 15 198 6.4 6.4 0.00 0.00 0.00 73 1011.5
20260505100309 15 198 6.4 6.4 0.00 0.00 0.00 73 1011.1
20260505095805 15 198 6.4 6.4 0.00 0.00 0.00 73 1011.2
20260505095304 15 198 6.4 6.4 0.00 0.00 0.00 73 1011.3
20260505094758 15 156 3.2 4.8 0.00 0.00 0.00 73 1011.5
20260505094255 16 194 3.2 4.8 0.00 0.00 0.00 73 1011.2
20260505093751 16 194 3.2 4.8 0.00 0.00 0.00 73 1011.3
20260505093249 16 180 0.0 1.6 0.00 0.00 0.00 73 1011.2
20260505092746 16 192 1.6 3.2 0.00 0.00 0.00 73 1011.3
20260505092244 16 135 4.8 4.8 0.00 0.00 0.00 73 1011.0
20260505091741 16 135 4.8 4.8 0.00 0.00 0.00 73 1010.7
20260505091239 16 123 6.4 6.4 0.00 0.00 0.00 73 1010.5
20260505090736 16 127 4.8 4.8 0.00 0.00 0.00 73 1010.7
20260505090234 16 144 4.8 6.4 0.00 0.00 0.00 73 1010.7
20260505085731 16 144 4.8 6.4 0.00 0.00 0.00 73 1010.7
20260505085230 16 144 4.8 6.4 0.00 0.00 0.00 73 1010.8
20260505084727 16 144 4.8 6.4 0.00 0.00 0.00 73 1010.7
20260505084226 16 144 4.8 6.4 0.00 0.00 0.00 73 1010.5
20260505083722 16 144 4.8 6.4 0.00 0.00 0.00 73 1010.7
20260505083219 16 147 3.2 4.8 0.00 0.00 0.00 73 1010.7
20260505082715 16 147 3.2 4.8 0.00 0.00 0.00 73 1010.3
20260505082213 16 155 4.8 4.8 0.00 0.00 0.00 73 1010.6
20260505081708 16 174 1.6 3.2 0.00 0.00 0.00 73 1010.3
20260505081206 17 212 3.2 6.4 0.00 0.00 0.00 73 1010.5
20260505080703 17 212 3.2 6.4 0.00 0.00 0.00 73 1010.5
20260505080158 17 212 3.2 6.4 0.00 0.00 0.00 73 1010.7
20260505075654 17 212 3.2 6.4 0.00 0.00 0.00 73 1010.8
20260505075151 17 212 3.2 6.4 0.00 0.00 0.00 73 1010.6
20260505074648 17 212 3.2 6.4 0.00 0.00 0.00 73 1010.6
20260505074145 17 212 3.2 6.4 0.00 0.00 0.00 73 1010.7
20260505073643 17 202 6.4 9.7 0.00 0.00 0.00 73 1010.7
20260505073141 17 202 6.4 9.7 0.00 0.00 0.00 73 1010.8
20260505072636 17 202 6.4 9.7 0.00 0.00 0.00 73 1010.9
20260505072133 17 205 11.3 11.3 0.00 0.00 0.00 73 1010.7
20260505071629 17 209 9.7 16.1 0.00 0.00 0.00 73 1010.9
20260505071127 17 203 11.3 11.3 0.00 0.00 0.00 73 1010.8
20260505070624 17 206 12.9 19.3 0.00 0.00 0.00 73 1010.8
20260505070120 17 214 4.8 11.3 0.00 0.00 0.00 73 1010.9
20260505065616 17 214 4.8 11.3 0.00 0.00 0.00 73 1010.8
20260505065112 17 214 4.8 11.3 0.00 0.00 0.00 73 1010.9
20260505064609 17 214 4.8 11.3 0.00 0.00 0.00 73 1010.9
20260505064108 17 176 6.4 11.3 0.00 0.00 0.00 73 1011.1
20260505063605 17 190 4.8 4.8 0.00 0.00 0.00 73 1011.0
20260505063101 16 198 8.0 11.3 0.00 0.00 0.00 73 1011.1
20260505062557 16 154 4.8 4.8 0.00 0.00 0.00 73 1010.8
20260505062055 17 144 3.2 12.9 0.00 0.00 0.00 73 1011.0
20260505061552 17 144 3.2 12.9 0.00 0.00 0.00 73 1011.1
20260505061050 17 144 3.2 12.9 0.00 0.00 0.00 73 1011.3
20260505060547 17 189 6.4 6.4 0.00 0.00 0.00 73 1011.4
20260505060044 17 189 6.4 6.4 0.00 0.00 0.00 73 1011.6
20260505055539 17 189 6.4 6.4 0.00 0.00 0.00 73 1012.0
20260505055036 17 189 6.4 6.4 0.00 0.00 0.00 73 1011.9